OBJECT A, 44879

Orbit data source: Space-Track

You're viewing an Uncataloged Satellite

Recently launched and/or uncataloged satellites may have evolving metadata. Metadata may include but not limited to: Owner, Maufacturer, Bus, Motor, and Mission.

OBJECT A, 44879 is a satellite in SSO that was launched on Fri, 20 Dec 2019 UTC via a CHANG ZHENG 4B launch vehicle from the Taiyaun Space Center, China (TSC). Unknown objects in Earth's orbit typically refer to objects detected orbiting the Earth but have not yet been identified or cataloged. These objects could be anything from previously untracked satellites, spent rocket stages, debris from satellite collisions, or even natural meteoroids temporarily captured by Earth's gravity.

Loading next visibility...
Identifier
44879, 2019-093A
Orbit
SSO
Country
Flag of TBDTBD
Related business
None
Manufacturer
Weina
Mission
Operational Commercial Imaging
Bus & Motor
MN50, Unknown motor
Mass
65 kg wet, 65 kg dry
Launch date (UTC)
2019-12-20 (6 years ago)
Launch vehicle
CHANG ZHENG 4B
Launch site
Taiyaun Space Center, China (TSC)
Object type
Unknown
Shape & HBR
Box + 2 Pan, Unknown HBR
Radar Cross Section
0.195 m², Medium (>0.1 m² and < 1m²)

Expand to show TLE details & history
Last TLE update: 15 hours ago

TLE from 15 hours ago
0 OBJECT A
1 44879U 19093A   25261.26001397  .00003050  00000-0  29700-3 0  9997
2 44879  97.8023 342.1716 0010591 234.5899 125.4332 14.93225767311431
Epoch: 2025-09-18T06:14Z
TLE epoch observation values (Epoch: 2025-09-18T06:14:25.207Z)
Latitude
0.00002°
Longitude
-108.8576°
Altitude
595.211 km
Speed
7.56 km/s
True Right ascension
22h 48m 41s
True Declination
0° 00' 00"
Sunlit
Object was in full shadow at epoch
Visualization orbit readout
Latitude
Unknown
Longitude
Unknown
Altitude
Unknown
Speed
Unknown
Apparent Right ascension
Unknown
Apparent Declination
Unknown
Sunlit
N/A
Visualization observer readout
Local Sidereal Time
13:42:25
Azimuth
Unknown
Elevation
Unknown
Doppler factor
Unknown
Orbital elements
Apogee altitude
592.279 km
Perigee altitude
577.53 km
Semi-major axis
6,963.041 km
Eccentricity
0.00106
Inclination
97.8023°
RAAN
342.1716°
Arg. of periapsis
234.5899°
True anomaly
125.53201°
Mean anomaly
125.4332°
Eccentric anomaly
125.48261°
Mean motion
3.73547 °/min
Orbital period
96.37 mins
BSTAR
0.000297
Loading maneuver chart data...
Computing Atmospheric mass density...
Loading historical data...
Loading historical data...
Loading historical data...
Loading historical data...
Loading historical data...
Loading historical data...
Loading historical data...

Documentation

Showing up to 5 results
|